[[{"header":{"parameterUnit":"m.s-1","parameterCategory":1,"la1":30.2991,"la2":30.254,"lo1":-89.0895,"lo2":-89.0444,"dy":0.0017,"dx":0.0017,"nx":28,"ny":28,"refTime":"2024-05-09T03:00:00:Z","depth":0,"parameterNumber":2,"parameterNumberName":"U-component_of_WINDS"},"data":[0,0,0,0,0,0,0,0,0,0,0,0,0,0,0,0,0,0,0,0,0,0,0,0,0,0,0,0,0,0,0,0,0,0,0,0,0,0,0,0,0,0,0,0,0,0,0,0,0,0,0,0,0,0,0,0,0,0,1.2846,1.2848,0,1.2964,1.2966,1.2967,1.2979,1.2978,1.2977,1.2976,1.3098,1.3103,1.3107,0,0,0,0,0,0,0,0,0,0,0,0,0,1.2631,1.2635,1.2846,1.2848,1.2849,1.2964,1.2966,1.2967,1.298,1.2978,1.2977,1.2975,1.3097,1.3102,1.3107,0,0,0,0,0,0,0,0,0,0,0,0,0,1.2735,1.2637,1.2846,1.2869,1.2872,1.2964,1.2966,1.2968,1.298,1.2978,1.2976,1.2975,1.3095,1.3102,1.3108,1.3185,0,0,1.3128,1.3131,0,0,0,0,0,0,0,0,1.2729,1.2743,1.2864,1.2868,1.2871,1.2955,1.2935,1.3041,1.298,1.2939,1.2976,1.2974,1.3052,1.3062,1.3089,1.3191,1.3196,1.3129,1.3133,1.3136,1.3137,0,0,0,0,0,0,0,1.2722,1.2738,1.2893,1.2866,1.287,1.2874,1.2886,1.2955,1.3005,1.2943,1.2944,1.2957,1.3054,1.3082,1.3091,1.3198,1.3129,1.3134,1.3139,1.3141,1.3368,1.337,0,0,0,0,0,0,1.271,1.2731,1.2889,1.2897,1.2794,1.2879,1.2893,1.293,1.3004,1.3013,1.2959,1.2958,1.3072,1.3084,1.3096,1.319,1.3136,1.3142,1.3146,1.3366,1.3368,1.3371,0,0,0,0,0,0,1.2705,1.2724,1.2884,1.2814,1.2835,1.2885,1.2926,1.2933,1.2962,1.3016,1.3025,1.2979,1.3071,1.3087,1.3162,1.3194,1.3145,1.3151,1.3363,1.3367,1.3369,1.3378,0,0,0,0,0,0,1.2699,1.2722,1.2752,1.2815,1.2839,1.2949,1.2928,1.2937,1.2973,1.2972,1.3037,1.3046,1.3071,1.3152,1.3169,1.3202,1.3156,1.3361,1.3365,1.3368,1.3376,1.3381,1.3387,0,0,0,0,0,1.2691,1.2751,1.2753,1.2772,1.2877,1.2951,1.2964,1.2991,1.2975,1.3006,1.304,1.3044,1.3188,1.316,1.3179,1.3215,1.3359,1.3364,1.3368,1.3373,1.338,1.3386,0,0,0,0,0,0,1.2691,1.2759,1.2763,1.2844,1.2892,1.2953,1.2992,1.2998,1.3051,1.3048,1.308,1.3094,1.3169,1.3199,1.3167,1.3292,1.3272,1.328,1.3269,1.3277,1.3282,1.3273,1.3161,0,0,0,0,0,1.27,1.2754,1.2811,1.2877,1.2901,1.2942,1.2975,1.2991,1.3042,1.3062,1.3102,1.3151,1.3207,1.3244,1.3299,1.338,1.3394,1.3414,1.3419,1.3424,1.3431,1.3474,1.3484,1.3386,1.3386,1.3386,0,0,1.272,1.2764,1.2796,1.2878,1.2917,1.2971,1.2959,1.3018,1.3059,1.3071,1.3145,1.3176,1.3233,1.3311,1.3348,1.3339,1.3461,1.343,1.3433,1.3437,1.348,1.3489,1.3497,1.3389,1.3388,1.3388,0,0,1.2784,1.2823,1.2881,1.292,1.2978,1.3005,1.3019,1.3079,1.31,1.3174,1.3184,1.3233,1.333,1.3369,1.3402,1.3479,1.3484,1.3496,1.3525,1.3567,1.3575,1.3582,1.3608,1.3618,1.3503,1.3503,1.3503,0,1.2801,1.2884,1.2911,1.2969,1.3005,1.3017,1.3077,1.3113,1.3186,1.321,1.3199,1.3319,1.3359,1.3446,1.3464,1.3491,1.3507,1.3489,1.3572,1.3579,1.3586,1.3611,1.3621,1.3504,1.3504,1.3504,1.3504,0,1.2902,1.2959,1.3,1.3069,1.3109,1.3167,1.3203,1.324,1.3253,1.3281,1.3355,1.3403,1.3467,1.3489,1.3502,1.3578,1.357,1.3565,1.3545,1.3596,1.362,1.363,1.3506,1.3505,1.3505,1.3505,0,0,1.2969,1.3051,1.3065,1.3096,1.3161,1.3205,1.3264,1.3326,1.3357,1.3407,1.3456,1.3537,1.3532,1.3569,1.3588,1.3625,1.3681,1.3615,1.3617,1.3625,1.3766,1.3768,1.3779,1.3685,1.3687,1.3689,1.376,0,1.3039,1.3143,1.3169,1.3258,1.3311,1.3323,1.3374,1.3419,1.3447,1.3495,1.3526,1.3582,1.3573,1.3595,1.3632,1.3666,1.371,1.3662,1.3731,1.3733,1.3715,1.3792,1.3795,1.386,1.377,1.3772,1.3773,0,1.3135,1.3185,1.3279,1.3336,1.3359,1.3404,1.3462,1.3509,1.356,1.3577,1.3617,1.3632,1.3693,1.367,1.3755,1.3721,1.3751,1.3772,1.3775,1.3782,1.3755,1.3799,1.3882,1.3891,1.3789,1.3787,1.3786,0,1.3172,1.3264,1.3332,1.3358,1.3426,1.3457,1.3487,1.3536,1.3571,1.3622,1.3645,1.3702,1.3734,1.3778,1.3807,1.3788,1.3888,1.3868,1.3904,1.3903,1.3924,1.3922,1.4011,1.3945,1.3945,1.3945,1.3945,0,1.3247,1.3304,1.3349,1.3391,1.3455,1.3483,1.3546,1.3576,1.3619,1.3667,1.3682,1.3726,1.3762,1.3811,1.3834,1.39,1.3915,1.393,1.3935,1.3928,1.3926,1.3947,1.3943,1.3947,1.3947,1.3946,1.3946,0,1.3299,1.3332,1.3407,1.3464,1.348,1.3524,1.3574,1.3614,1.3642,1.3702,1.3717,1.3761,1.382,1.3853,1.3927,1.3943,1.4015,1.4019,1.3997,1.4,1.4033,1.4029,1.4138,1.4153,1.4078,1.4078,1.4079,0,1.3344,1.3388,1.345,1.3482,1.3512,1.3565,1.36,1.363,1.3666,1.3727,1.376,1.3819,1.3868,1.3961,1.3999,1.4056,1.406,1.4094,1.4069,1.4059,1.4059,1.4056,1.4059,1.4099,1.4099,1.41,1.41,0,1.342,1.3434,1.3484,1.354,1.3582,1.3627,1.3672,1.3698,1.3736,1.3776,1.3835,1.3873,1.3948,1.4006,1.4065,1.4096,1.4104,1.4108,1.4119,1.4112,1.4097,1.4104,1.4008,1.4105,1.4105,1.4104,1.4104,1.4104,1.3469,1.3508,1.3557,1.3613,1.365,1.3691,1.3732,1.3764,1.3814,1.3876,1.3891,1.3954,1.4003,1.4083,1.4115,1.4164,1.4158,1.4174,1.4178,1.4181,1.4182,1.409,1.4175,1.4175,1.4175,1.4175,1.4175,0,1.3545,1.3577,1.3627,1.3689,1.3733,1.3736,1.3786,1.3822,1.3876,1.3921,1.3969,1.4036,1.4093,1.4135,1.4192,1.4223,1.4229,1.4237,1.4235,1.4242,1.4185,1.4169,1.4232,1.4232,1.4232,1.4232,1.4232,1.4232,1.3589,1.3654,1.3674,1.3758,1.379,1.385,1.3878,1.3916,1.3952,1.4027,1.4073,1.41,1.4144,1.4204,1.4256,1.4267,1.4287,1.4295,1.4306,1.4252,1.4246,1.424,1.4225,1.4299,1.43,1.4359,1.436,1.436]},{"header":{"parameterUnit":"m.s-1","parameterCategory":1,"la1":30.2991,"la2":30.254,"lo1":-89.0895,"lo2":-89.0444,"dy":0.0017,"dx":0.0017,"nx":28,"ny":28,"refTime":"2024-05-09T03:00:00:Z","depth":0,"parameterNumber":3,"parameterNumberName":"V-component_of_WINDS"},"data":[0,0,0,0,0,0,0,0,0,0,0,0,0,0,0,0,0,0,0,0,0,0,0,0,0,0,0,0,0,0,0,0,0,0,0,0,0,0,0,0,0,0,0,0,0,0,0,0,0,0,0,0,0,0,0,0,0,0,3.2937,3.2939,0,3.3127,3.3129,3.3131,3.3184,3.3183,3.3182,3.3181,3.3373,3.3379,3.3385,0,0,0,0,0,0,0,0,0,0,0,0,0,3.2617,3.2623,3.2937,3.2939,3.2942,3.3127,3.3129,3.3132,3.3184,3.3183,3.3182,3.3181,3.3371,3.3378,3.3385,0,0,0,0,0,0,0,0,0,0,0,0,0,3.2776,3.2625,3.2936,3.299,3.2997,3.3126,3.3129,3.3132,3.3185,3.3183,3.3182,3.318,3.3369,3.3377,3.3386,3.3475,0,0,3.3414,3.3418,0,0,0,0,0,0,0,0,3.2767,3.2788,3.298,3.2987,3.2995,3.313,3.3087,3.3247,3.3185,3.3113,3.3181,3.3179,3.3293,3.3309,3.3348,3.3484,3.3492,3.3415,3.3421,3.3425,3.3427,0,0,0,0,0,0,0,3.2756,3.278,3.3012,3.2983,3.2992,3.3004,3.3025,3.3117,3.321,3.3119,3.3124,3.3146,3.3297,3.3339,3.3352,3.3495,3.3415,3.3423,3.3429,3.3432,3.3713,3.3715,0,0,0,0,0,0,3.2736,3.2771,3.3006,3.3018,3.2875,3.3011,3.3034,3.3088,3.3209,3.3226,3.3147,3.3147,3.3324,3.3342,3.3359,3.3472,3.3425,3.3433,3.3438,3.3711,3.3714,3.3716,0,0,0,0,0,0,3.2729,3.2757,3.2998,3.2896,3.2927,3.3018,3.3078,3.3093,3.3135,3.323,3.3246,3.3173,3.3323,3.3347,3.3446,3.3479,3.3437,3.3446,3.3709,3.3712,3.3715,3.3695,0,0,0,0,0,0,3.272,3.2754,3.2789,3.2896,3.2932,3.3082,3.308,3.3098,3.3151,3.3153,3.3258,3.3274,3.3324,3.3432,3.3455,3.3491,3.3453,3.3706,3.371,3.3714,3.3694,3.3697,3.3701,0,0,0,0,0,3.2708,3.2775,3.2791,3.2819,3.2978,3.3084,3.3105,3.3162,3.3153,3.3189,3.325,3.3271,3.3471,3.3442,3.3468,3.3507,3.3705,3.3709,3.3714,3.3692,3.3697,3.3701,0,0,0,0,0,0,3.2669,3.279,3.2809,3.2912,3.2988,3.3093,3.314,3.3165,3.3243,3.3242,3.3308,3.3331,3.3426,3.3476,3.3441,3.3599,3.3588,3.3598,3.3563,3.3568,3.3572,3.3558,3.346,0,0,0,0,0,3.2673,3.2749,3.2851,3.2932,3.2969,3.3048,3.3096,3.3133,3.3213,3.3245,3.3314,3.339,3.347,3.3522,3.3601,3.3701,3.3724,3.374,3.3744,3.3746,3.3754,3.3811,3.382,3.373,3.373,3.373,0,0,3.2681,3.2756,3.2801,3.2927,3.2989,3.3067,3.3074,3.3156,3.3214,3.3257,3.3356,3.3409,3.3498,3.3598,3.3646,3.3643,3.3784,3.3752,3.3753,3.376,3.3817,3.3825,3.3832,3.3733,3.3733,3.3732,0,0,3.2735,3.28,3.2876,3.2938,3.3034,3.3085,3.3103,3.3205,3.3242,3.3342,3.3377,3.3446,3.3583,3.3645,3.3695,3.3773,3.3795,3.3796,3.3815,3.387,3.3877,3.3883,3.3912,3.3921,3.3804,3.3804,3.3804,0,3.2733,3.2852,3.2911,3.2991,3.3045,3.3089,3.3166,3.3224,3.3339,3.3376,3.3371,3.3544,3.3607,3.3723,3.3742,3.378,3.3803,3.3785,3.3871,3.3878,3.3885,3.3913,3.3923,3.3803,3.3803,3.3803,3.3803,0,3.2844,3.2926,3.2975,3.3087,3.3147,3.3225,3.3295,3.3348,3.338,3.3432,3.3533,3.3611,3.3706,3.3736,3.3767,3.3857,3.3852,3.3858,3.3849,3.3892,3.392,3.3931,3.3803,3.3803,3.3803,3.3803,0,0,3.288,3.3024,3.3041,3.3092,3.32,3.3264,3.3344,3.3438,3.3483,3.3561,3.3629,3.3744,3.3751,3.3807,3.3845,3.3893,3.3951,3.3894,3.3897,3.3902,3.4054,3.4049,3.406,3.3966,3.3968,3.397,3.4047,0,3.2948,3.3094,3.3149,3.3267,3.3344,3.3386,3.3456,3.3529,3.3579,3.3651,3.3706,3.3787,3.3789,3.3823,3.3873,3.3933,3.3982,3.3928,3.403,3.4033,3.4007,3.4075,3.407,3.4139,3.4058,3.4059,3.4061,0,3.3048,3.3128,3.3254,3.3353,3.3387,3.3449,3.354,3.3608,3.3692,3.3725,3.3788,3.3823,3.3908,3.3892,3.4009,3.3972,3.4016,3.4052,3.4056,3.4068,3.405,3.4089,3.4162,3.4173,3.4078,3.4077,3.4075,0,3.3062,3.3201,3.3295,3.3338,3.3455,3.3498,3.3548,3.3631,3.3684,3.3763,3.3799,3.3886,3.3934,3.4001,3.4059,3.4042,3.417,3.416,3.42,3.4199,3.4226,3.4224,3.4308,3.4253,3.4253,3.4253,3.4253,0,3.3133,3.3209,3.3303,3.3361,3.3447,3.3509,3.3592,3.3646,3.3718,3.3787,3.3828,3.3891,3.3964,3.4036,3.4081,3.4171,3.4192,3.4222,3.4233,3.4219,3.4215,3.4249,3.4246,3.4256,3.4255,3.4254,3.4254,0,3.3164,3.323,3.3335,3.3438,3.3466,3.3525,3.3613,3.367,3.3722,3.3808,3.3831,3.3913,3.4,3.4065,3.4177,3.4208,3.4304,3.4315,3.4276,3.4282,3.4319,3.4315,3.4429,3.4448,3.4379,3.438,3.438,0,3.3206,3.3265,3.3375,3.3424,3.3475,3.3553,3.3608,3.3672,3.3727,3.3827,3.3872,3.3962,3.4038,3.4175,3.4244,3.433,3.4344,3.4378,3.4357,3.4341,3.4346,3.4342,3.4348,3.4381,3.4382,3.4382,3.4382,0,3.3273,3.3302,3.3381,3.3471,3.3535,3.3609,3.3683,3.372,3.3797,3.3857,3.3947,3.4006,3.4121,3.421,3.4303,3.4354,3.4381,3.4388,3.4402,3.4389,3.4364,3.4379,3.4285,3.4385,3.4385,3.4385,3.4385,3.4385,3.3311,3.3366,3.3452,3.3538,3.36,3.3668,3.3728,3.3787,3.3864,3.3964,3.3996,3.4089,3.4171,3.4299,3.4352,3.4425,3.4424,3.4444,3.445,3.4454,3.4454,3.4351,3.4442,3.4442,3.4442,3.4442,3.4442,0,3.3381,3.3438,3.3516,3.3619,3.3687,3.3707,3.3789,3.3844,3.3926,3.4001,3.4075,3.4178,3.4265,3.434,3.443,3.4474,3.4489,3.4496,3.4494,3.4505,3.4449,3.4428,3.4482,3.4482,3.4482,3.4482,3.4482,3.4482,3.3425,3.3519,3.3559,3.3685,3.3742,3.3834,3.388,3.3943,3.4003,3.4117,3.419,3.4239,3.4314,3.441,3.449,3.451,3.4541,3.4545,3.4568,3.4514,3.4509,3.4504,3.4485,3.4551,3.4551,3.4619,3.4619,3.462]}]]